Oakes, ND

8:05 PM CST on February 21, 2017 (GMT -0600)
Oakes

Weather History for K2D5 - December, 2012

Change the Weather History Date:

Wednesday, December 12, 2012

  Actual Average (KP67) Record (KP67)
Temperature  
Mean Temperature 21 °F -  
Max Temperature 28 °F 24 °F 34 °F (1997)
Min Temperature 14 °F 11 °F 10 °F (1996)
Degree Days  
Heating Degree Days 44    
Moisture  
Dew Point 18 °F    
Average Humidity 93    
Maximum Humidity 100    
Minimum Humidity 80    
Precipitation  
Precipitation 0.01 in - - ()
Sea Level Pressure  
Sea Level Pressure 29.75 in    
Wind  
Wind Speed 10 mph (ESE)    
Max Wind Speed 18 mph    
Max Gust Speed 21 mph    
Visibility 9 miles    
Events Snow    
Averages and records for this station are not official NWS values.
T = Trace of Precipitation, MM = Missing Value Source: NWS Daily Summary

Daily Weather History Graph

Daily Weather History Graph

Search for Another Location

Airport or City:

Trip Planner

Search our weather history database for the weather conditions in past years. The results will help you decide how hot, cold, wet, or windy it might be!

Date:

Astronomy

Dec. 12, 2012 Rise Set
Actual Time 8:06 AM CST 4:46 PM CST
Civil Twilight 7:31 AM CST 5:21 PM CST
Nautical Twilight 6:53 AM CST 5:59 PM CST
Astronomical Twilight 6:16 AM CST 6:35 PM CST
Moon 7:10 AM CST (12/12) 4:25 PM CST (12/12)
Length of Visible Light 9h 49m
Length of Day
8h 40m
Waning Crescent, 1% of the Moon is Illuminated
Dec 12
Waning Crescent
Dec 13
New
Dec 19
First Quarter
Dec 28
Full
Jan 4
Last Quarter

Hourly Weather History & Observations

Time (CST) Temp. Windchill Dew Point Humidity Pressure Visibility Wind Dir Wind Speed Gust Speed Precip Events Conditions
12:15 AM 14.0 °F 0.5 °F 14.0 °F 100% 29.75 in 10.0 mi East 11.5 mph - N/A   Unknown
12:35 AM 14.0 °F 1.2 °F 14.0 °F 100% 29.75 in 10.0 mi East 10.4 mph - N/A   Clear
12:55 AM 14.0 °F 1.2 °F 14.0 °F 100% 29.74 in 10.0 mi East 10.4 mph - N/A   Clear
1:15 AM 14.0 °F 1.2 °F 14.0 °F 100% 29.73 in 10.0 mi East 10.4 mph - N/A   Clear
1:35 AM 14.0 °F -0.2 °F 14.0 °F 100% 29.72 in 9.0 mi East 12.7 mph - N/A   Unknown
1:55 AM 14.0 °F 0.5 °F 14.0 °F 100% 29.70 in 8.0 mi East 11.5 mph - N/A   Unknown
2:15 AM 15.8 °F 2.1 °F 15.8 °F 100% 29.69 in 8.0 mi East 12.7 mph - N/A   Unknown
2:35 AM 15.8 °F 3.4 °F 15.8 °F 100% 29.69 in 8.0 mi East 10.4 mph - N/A   Unknown
2:55 AM 15.8 °F 2.1 °F 15.8 °F 100% 29.69 in 8.0 mi East 12.7 mph - N/A   Scattered Clouds
3:15 AM 15.8 °F 2.1 °F 15.8 °F 100% 29.69 in 8.0 mi East 12.7 mph - N/A   Overcast
3:35 AM 15.8 °F 0.9 °F 14.0 °F 93% 29.67 in 8.0 mi East 15.0 mph - N/A   Unknown
3:55 AM 15.8 °F 2.1 °F 14.0 °F 93% 29.66 in 8.0 mi East 12.7 mph - N/A   Unknown
4:15 AM 15.8 °F 2.1 °F 15.8 °F 100% 29.65 in 8.0 mi East 12.7 mph - N/A   Unknown
4:35 AM 15.8 °F 1.4 °F 15.8 °F 100% 29.64 in 8.0 mi ESE 13.8 mph - N/A   Unknown
4:55 AM 17.6 °F 5.7 °F 15.8 °F 93% 29.64 in 9.0 mi SE 10.4 mph - N/A   Mostly Cloudy
5:15 AM 17.6 °F 10.7 °F 17.6 °F 100% 29.65 in 10.0 mi SE 4.6 mph - N/A   Mostly Cloudy
5:35 AM 17.6 °F 9.3 °F 17.6 °F 100% 29.65 in 10.0 mi SE 5.8 mph - N/A   Mostly Cloudy
5:55 AM 17.6 °F 8.2 °F 15.8 °F 93% 29.65 in 10.0 mi SE 6.9 mph - N/A   Unknown
6:15 AM 17.6 °F - 17.6 °F 100% 29.66 in 10.0 mi Calm Calm - N/A   Unknown
6:35 AM 17.6 °F - 17.6 °F 100% 29.66 in 10.0 mi Calm Calm - N/A   Unknown
6:55 AM 17.6 °F 9.3 °F 17.6 °F 100% 29.66 in 10.0 mi South 5.8 mph - N/A   Unknown
7:15 AM 17.6 °F 8.2 °F 15.8 °F 93% 29.66 in 10.0 mi South 6.9 mph - N/A   Unknown
7:35 AM 15.8 °F 5.1 °F 15.8 °F 100% 29.66 in 10.0 mi South 8.1 mph - N/A   Unknown
7:55 AM 15.8 °F 4.2 °F 14.0 °F 93% 29.66 in 10.0 mi South 9.2 mph - N/A   Unknown
8:15 AM 17.6 °F 8.2 °F 15.8 °F 93% 29.67 in 10.0 mi SW 6.9 mph - N/A   Partly Cloudy
8:35 AM 15.8 °F 6.1 °F 14.0 °F 93% 29.67 in 10.0 mi South 6.9 mph - N/A   Partly Cloudy
8:55 AM 15.8 °F 8.6 °F 14.0 °F 93% 29.68 in 10.0 mi SSW 4.6 mph - N/A   Clear
9:15 AM 15.8 °F 5.1 °F 14.0 °F 93% 29.69 in 10.0 mi SSW 8.1 mph - N/A   Clear
9:35 AM 17.6 °F 5.0 °F 15.8 °F 93% 29.69 in 10.0 mi SSW 11.5 mph - N/A   Unknown
9:55 AM 17.6 °F 4.3 °F 15.8 °F 93% 29.69 in 10.0 mi South 12.7 mph - N/A   Unknown
10:15 AM 19.4 °F 6.0 °F 15.8 °F 86% 29.70 in 10.0 mi SSW 13.8 mph - N/A   Unknown
10:35 AM 19.4 °F 6.6 °F 15.8 °F 86% 29.70 in 10.0 mi South 12.7 mph - N/A   Unknown
10:55 AM 19.4 °F 7.2 °F 15.8 °F 86% 29.71 in 10.0 mi SSW 11.5 mph - N/A   Unknown
11:15 AM 19.4 °F 8.6 °F 15.8 °F 86% 29.72 in 10.0 mi SSW 9.2 mph - N/A   Unknown
11:35 AM 19.4 °F 8.6 °F 17.6 °F 93% 29.71 in 10.0 mi South 9.2 mph - N/A   Clear
11:55 AM 21.2 °F 10.1 °F 17.6 °F 86% 29.71 in 10.0 mi SSW 10.4 mph - N/A   Clear
12:15 PM 23.0 °F 13.9 °F 19.4 °F 86% 29.71 in 10.0 mi SSW 8.1 mph - N/A   Clear
12:35 PM 23.0 °F 13.1 °F 19.4 °F 86% 29.71 in 10.0 mi SSW 9.2 mph - N/A   Clear
12:55 PM 24.8 °F 19.1 °F 19.4 °F 80% 29.72 in 10.0 mi SSW 4.6 mph - N/A   Clear
1:15 PM 26.6 °F 20.0 °F 23.0 °F 86% 29.71 in 10.0 mi SSW 5.8 mph - N/A   Clear
1:55 PM 26.6 °F 18.2 °F 23.0 °F 86% 29.72 in 10.0 mi SSW 8.1 mph - N/A   Unknown
2:15 PM 26.6 °F 20.0 °F 23.0 °F 86% 29.73 in 10.0 mi SSW 5.8 mph - N/A   Unknown
2:35 PM 26.6 °F 21.2 °F 24.8 °F 93% 29.73 in 10.0 mi SSW 4.6 mph - N/A   Unknown
2:55 PM 26.6 °F 22.6 °F 23.0 °F 86% 29.73 in 10.0 mi SSW 3.5 mph - N/A   Unknown
3:15 PM 26.6 °F 22.6 °F 23.0 °F 86% 29.74 in 10.0 mi South 3.5 mph - N/A   Unknown
3:35 PM 26.6 °F - 23.0 °F 86% 29.75 in 10.0 mi Calm Calm - N/A   Unknown
3:55 PM 28.4 °F - 23.0 °F 80% 29.75 in 10.0 mi Calm Calm - N/A   Unknown
4:15 PM 26.6 °F - 23.0 °F 86% 29.77 in 10.0 mi Calm Calm - N/A   Unknown
4:35 PM 26.6 °F 22.6 °F 24.8 °F 93% 29.77 in 10.0 mi NNE 3.5 mph - N/A   Unknown
4:55 PM 26.6 °F 21.2 °F 24.8 °F 93% 29.78 in 10.0 mi NE 4.6 mph - N/A   Unknown
5:15 PM 26.6 °F - 24.8 °F 93% 29.80 in 10.0 mi Calm Calm - N/A   Unknown
5:35 PM 26.6 °F 20.0 °F 24.8 °F 93% 29.80 in 10.0 mi NE 5.8 mph - N/A   Unknown
5:55 PM 26.6 °F 14.7 °F 24.8 °F 93% 29.82 in 10.0 mi NNE 15.0 mph - N/A   Unknown
6:15 PM 23.0 °F 10.6 °F 21.2 °F 93% 29.83 in 10.0 mi NNE 13.8 mph - N/A   Unknown
6:35 PM 23.0 °F 11.7 °F 21.2 °F 93% 29.84 in 10.0 mi NE 11.5 mph - N/A   Unknown
6:55 PM 23.0 °F 11.1 °F 19.4 °F 86% 29.85 in 8.0 mi NNE 12.7 mph - N/A   Unknown
7:15 PM 23.0 °F 11.7 °F 19.4 °F 86% 29.87 in 7.0 mi NNE 11.5 mph - N/A   Partly Cloudy
7:35 PM 21.2 °F 7.8 °F 19.4 °F 93% 29.86 in 4.0 mi NNE 15.0 mph - N/A Snow Light Snow
7:55 PM 19.4 °F 6.6 °F 19.4 °F 100% 29.87 in 4.0 mi NNE 12.7 mph - 0.01 in Snow Light Snow
8:15 PM 19.4 °F 5.0 °F 17.6 °F 93% 29.87 in 6.0 mi NNE 16.1 mph - N/A Snow Light Snow
8:35 PM 17.6 °F 3.2 °F 17.6 °F 100% 29.88 in 9.0 mi NNE 15.0 mph - N/A   Unknown
8:55 PM 17.6 °F 2.2 °F 17.6 °F 100% 29.87 in 10.0 mi NNE 17.3 mph - N/A   Unknown
9:35 PM 17.6 °F 1.7 °F 15.8 °F 93% 29.87 in 10.0 mi NNE 18.4 mph - N/A   Unknown
9:55 PM 15.8 °F 0.3 °F 15.8 °F 100% 29.87 in 10.0 mi NNE 16.1 mph - N/A   Overcast
10:15 PM 15.8 °F 0.9 °F 15.8 °F 100% 29.88 in 10.0 mi NNE 15.0 mph 20.7 mph N/A   Overcast
10:35 PM 15.8 °F -0.6 °F 14.0 °F 93% 29.87 in 9.0 mi NNE 18.4 mph - N/A   Unknown
10:55 PM 15.8 °F 0.3 °F 14.0 °F 93% 29.89 in 9.0 mi NNE 16.1 mph - N/A   Unknown
11:15 PM 15.8 °F 0.3 °F 14.0 °F 93% 29.88 in 10.0 mi NNE 16.1 mph - N/A   Unknown
11:35 PM 15.8 °F -0.2 °F 14.0 °F 93% 29.88 in 10.0 mi NNE 17.3 mph - N/A   Unknown
11:55 PM 14.0 °F -2.0 °F 14.0 °F 100% 29.89 in 10.0 mi NNE 16.1 mph - N/A   Overcast